EW4725 Weather Reports


time (UTC)temp
C
wind
direction
speed
KPH
gust
KPH
rain 1hr
cm
rain 24hr
cm
rain mn
cm
humidity
%
barometer
mb
20260902035317 20 283 3.2 9.7 0.00 0.00 0.00 77 1014.0
20260902034817 20 283 3.2 6.4 0.00 0.00 0.00 77 1013.9
20260902034317 20 283 6.4 9.7 0.00 0.00 0.00 77 1013.9
20260902033817 20 283 6.4 9.7 0.00 0.00 0.00 77 1013.8
20260902033337 20 283 3.2 3.2 0.00 0.00 0.00 78 1013.7
20260902032817 20 283 1.6 3.2 0.00 0.00 0.00 78 1013.6
20260902032317 20 260 4.8 9.7 0.00 0.00 0.00 78 1013.6
20260902031817 20 283 4.8 6.4 0.00 0.00 0.00 79 1013.6
20260902031317 20 260 6.4 9.7 0.00 0.00 0.00 79 1013.6
20260902030817 20 260 6.4 9.7 0.00 0.00 0.00 79 1013.5
20260902030317 20 283 8.0 12.9 0.00 0.00 0.00 79 1013.4
20260902025917 20 305 8.0 14.5 0.00 0.00 0.00 78 1013.5
20260902025317 20 260 8.0 9.7 0.00 0.00 0.00 77 1013.4
20260902024817 20 283 8.0 14.5 0.00 0.00 0.00 77 1013.3
20260902024317 21 283 4.8 8.0 0.00 0.00 0.00 76 1013.3
20260902023817 21 283 8.0 14.5 0.00 0.00 0.00 76 1013.2
20260902023317 21 260 6.4 9.7 0.00 0.00 0.00 75 1013.1
20260902022817 21 260 6.4 9.7 0.00 0.00 0.00 75 1013.1
20260902022317 21 283 8.0 11.3 0.00 0.00 0.00 74 1013.1
20260902021857 21 260 8.0 11.3 0.00 0.00 0.00 73 1013.1
20260902021337 21 260 6.4 11.3 0.00 0.00 0.00 73 1013.1
20260902020817 22 305 8.0 11.3 0.00 0.00 0.00 72 1013.2
20260902020317 22 260 6.4 9.7 0.00 0.00 0.00 71 1013.2
20260902015817 22 283 9.7 12.9 0.00 0.00 0.00 71 1013.2
20260902015317 22 283 6.4 9.7 0.00 0.00 0.00 71 1013.2
20260902014817 22 283 8.0 11.3 0.00 0.00 0.00 70 1013.2
20260902014337 22 283 6.4 9.7 0.00 0.00 0.00 70 1013.2
20260902013817 22 283 6.4 9.7 0.00 0.00 0.00 69 1013.2
20260902013317 22 305 6.4 11.3 0.00 0.00 0.00 69 1013.2
20260902012837 22 283 6.4 11.3 0.00 0.00 0.00 69 1013.2
20260902012337 22 260 8.0 14.5 0.00 0.00 0.00 68 1013.2
20260902011817 23 283 11.3 17.7 0.00 0.00 0.00 67 1013.2
20260902011317 23 283 6.4 12.9 0.00 0.00 0.00 67 1013.2
20260902010817 23 283 12.9 16.1 0.00 0.00 0.00 66 1013.4
20260902010317 23 260 11.3 16.1 0.00 0.00 0.00 66 1013.4
20260902005817 23 283 9.7 14.5 0.00 0.00 0.00 66 1013.4
20260902005316 23 260 8.0 14.5 0.00 0.00 0.00 65 1013.4
20260902004817 23 260 12.9 17.7 0.00 0.00 0.00 65 1013.4
20260902004317 23 305 9.7 17.7 0.00 0.00 0.00 64 1013.5
20260902003816 23 283 9.7 14.5 0.00 0.00 0.00 63 1013.5
20260902003317 23 283 14.5 20.9 0.00 0.00 0.00 61 1013.4
20260902002816 23 305 6.4 14.5 0.00 0.00 0.00 62 1013.4
20260902002317 23 283 11.3 17.7 0.00 0.00 0.00 62 1013.5
20260902001817 24 260 9.7 16.1 0.00 0.00 0.00 62 1013.4
20260902001316 23 260 9.7 17.7 0.00 0.00 0.00 61 1013.4
20260902000817 24 283 9.7 12.9 0.00 0.00 0.00 61 1013.4
20260902000322 23 283 9.7 16.1 0.00 0.00 0.00 62 1013.4
20260901235817 23 283 6.4 11.3 0.00 0.00 0.00 61 1013.5
20260901235316 24 305 9.7 14.5 0.00 0.00 0.00 62 1013.6
20260901234816 24 283 12.9 22.5 0.00 0.00 0.00 62 1013.6
20260901234336 24 260 16.1 22.5 0.00 0.00 0.00 60 1013.6
20260901233816 25 260 8.0 11.3 0.00 0.00 0.00 61 1013.6
20260901233316 25 305 11.3 16.1 0.00 0.00 0.00 60 1013.7
20260901232817 25 283 9.7 16.1 0.00 0.00 0.00 60 1013.6
20260901232336 25 260 16.1 22.5 0.00 0.00 0.00 59 1013.6
20260901231817 25 305 9.7 14.5 0.00 0.00 0.00 59 1013.6
20260901231316 25 283 14.5 22.5 0.00 0.00 0.00 59 1013.6
20260901230816 25 260 9.7 12.9 0.00 0.00 0.00 60 1013.6
20260901230316 25 260 11.3 16.1 0.00 0.00 0.00 60 1013.6
20260901225817 25 260 12.9 17.7 0.00 0.00 0.00 60 1013.6
20260901225317 26 283 12.9 20.9 0.00 0.00 0.00 60 1013.6
20260901224817 26 283 11.3 17.7 0.00 0.00 0.00 59 1013.6
20260901224337 26 283 8.0 12.9 0.00 0.00 0.00 59 1013.6
20260901223837 26 260 8.0 12.9 0.00 0.00 0.00 58 1013.7
20260901223316 26 283 8.0 9.7 0.00 0.00 0.00 58 1013.7
20260901222816 26 283 8.0 14.5 0.00 0.00 0.00 58 1013.7
20260901222316 26 260 8.0 12.9 0.00 0.00 0.00 59 1013.8
20260901221816 26 305 11.3 16.1 0.00 0.00 0.00 59 1013.8
20260901221316 26 283 9.7 12.9 0.00 0.00 0.00 59 1013.8
20260901220817 26 283 11.3 17.7 0.00 0.00 0.00 58 1014.0
20260901220316 26 260 8.0 11.3 0.00 0.00 0.00 58 1014.0
20260901215817 26 215 8.0 11.3 0.00 0.00 0.00 58 1014.0
20260901215336 26 260 8.0 11.3 0.00 0.00 0.00 59 1014.0
20260901214816 26 260 11.3 17.7 0.00 0.00 0.00 58 1014.0
20260901214317 26 260 11.3 16.1 0.00 0.00 0.00 58 1014.0
20260901213816 26 283 11.3 14.5 0.00 0.00 0.00 59 1014.1
20260901213316 27 260 9.7 14.5 0.00 0.00 0.00 57 1014.1
20260901212817 27 283 11.3 16.1 0.00 0.00 0.00 56 1014.1
20260901212336 27 328 9.7 12.9 0.00 0.00 0.00 55 1014.1
20260901211816 27 305 9.7 17.7 0.00 0.00 0.00 55 1014.1
20260901211316 28 283 6.4 14.5 0.00 0.00 0.00 54 1014.2
20260901210816 28 328 8.0 11.3 0.00 0.00 0.00 53 1014.2
20260901210316 28 283 4.8 11.3 0.00 0.00 0.00 51 1014.2
20260901205816 28 260 4.8 9.7 0.00 0.00 0.00 47 1014.2
20260901205316 28 148 6.4 9.7 0.00 0.00 0.00 48 1014.3
20260901204857 28 193 6.4 11.3 0.00 0.00 0.00 47 1014.2
20260901204337 28 148 8.0 9.7 0.00 0.00 0.00 48 1014.3
20260901203816 28 148 8.0 12.9 0.00 0.00 0.00 48 1014.4
20260901203316 28 170 8.0 11.3 0.00 0.00 0.00 47 1014.5
20260901202816 28 283 4.8 9.7 0.00 0.00 0.00 49 1014.4
20260901202316 27 193 6.4 12.9 0.00 0.00 0.00 50 1014.6
20260901201816 27 148 6.4 8.0 0.00 0.00 0.00 51 1014.6
20260901201316 27 125 4.8 11.3 0.00 0.00 0.00 52 1014.7
20260901200837 27 148 4.8 8.0 0.00 0.00 0.00 52 1014.8
20260901200316 27 125 9.7 12.9 0.00 0.00 0.00 51 1014.8
20260901195837 27 148 8.0 11.3 0.00 0.00 0.00 53 1014.9
20260901195317 27 283 6.4 11.3 0.00 0.00 0.00 52 1015.0
20260901194836 27 125 3.2 17.7 0.00 0.00 0.00 54 1015.0
20260901194316 27 260 4.8 11.3 0.00 0.00 0.00 54 1015.0
20260901193816 27 170 6.4 12.9 0.00 0.00 0.00 56 1015.1
20260901193316 27 193 8.0 11.3 0.00 0.00 0.00 56 1015.1
20260901192816 26 215 3.2 6.4 0.00 0.00 0.00 57 1015.1
20260901192316 26 170 6.4 12.9 0.00 0.00 0.00 56 1015.2
20260901191816 26 170 4.8 8.0 0.00 0.00 0.00 58 1015.2
20260901191316 26 238 3.2 8.0 0.00 0.00 0.00 60 1015.3
20260901190816 26 170 4.8 8.0 0.00 0.00 0.00 60 1015.3
20260901190316 26 238 6.4 9.7 0.00 0.00 0.00 61 1015.3
20260901185816 25 260 6.4 9.7 0.00 0.00 0.00 61 1015.3
20260901185316 26 283 4.8 8.0 0.00 0.00 0.00 62 1015.3
20260901184816 26 283 4.8 8.0 0.00 0.00 0.00 62 1015.4
20260901184316 26 215 6.4 11.3 0.00 0.00 0.00 62 1015.4
20260901183856 25 148 8.0 9.7 0.00 0.00 0.00 63 1015.4
20260901183316 25 238 4.8 11.3 0.00 0.00 0.00 64 1015.4
20260901182816 25 215 4.8 6.4 0.00 0.00 0.00 64 1015.4
20260901182316 25 170 6.4 9.7 0.00 0.00 0.00 64 1015.5
20260901181816 25 170 8.0 16.1 0.00 0.00 0.00 64 1015.5
20260901181336 25 0.0 1.6 0.00 0.00 0.00 64 1015.5
20260901180821 25 283 4.8 6.4 0.00 0.00 0.00 62 1015.6
20260901180316 25 260 1.6 9.7 0.00 0.00 0.00 65 1015.5
20260901175836 25 0.0 1.6 0.00 0.00 0.00 65 1015.5
20260901175316 25 305 3.2 6.4 0.00 0.00 0.00 66 1015.5
20260901174816 24 0.0 0.0 0.00 0.00 0.00 68 1015.5
20260901174336 23 0.0 1.6 0.00 0.00 0.00 69 1015.6
20260901173816 23 215 6.4 11.3 0.00 0.00 0.00 69 1015.6
20260901173316 23 305 3.2 4.8 0.00 0.00 0.00 69 1015.6
20260901172816 23 260 4.8 8.0 0.00 0.00 0.00 69 1015.5
20260901172316 23 148 6.4 8.0 0.00 0.00 0.00 69 1015.4
20260901171816 23 103 3.2 4.8 0.00 0.00 0.00 70 1015.5
20260901171356 23 148 3.2 6.4 0.00 0.00 0.00 71 1015.4
20260901170816 23 283 4.8 8.0 0.00 0.00 0.00 70 1015.4
20260901170316 23 238 1.6 3.2 0.00 0.00 0.00 70 1015.4
20260901165816 23 0.0 0.0 0.00 0.00 0.00 72 1015.4
20260901165316 23 148 1.6 3.2 0.00 0.00 0.00 73 1015.4
20260901164836 22 0.0 3.2 0.00 0.00 0.00 74 1015.4
20260901164316 22 0.0 0.0 0.00 0.00 0.00 75 1015.4
20260901163816 22 58 3.2 4.8 0.00 0.00 0.00 75 1015.5
20260901163316 22 0.0 3.2 0.00 0.00 0.00 77 1015.4
20260901162816 22 35 1.6 8.0 0.00 0.00 0.00 77 1015.4
20260901162316 21 0.0 0.0 0.00 0.00 0.00 79 1015.4
20260901161816 21 328 3.2 4.8 0.00 0.00 0.00 79 1015.5
20260901161316 21 0.0 1.6 0.00 0.00 0.00 80 1015.5
20260901160816 20 328 1.6 3.2 0.00 0.00 0.00 81 1015.5
20260901160316 20 0.0 0.0 0.00 0.00 0.00 83 1015.3
20260901155816 20 0.0 0.0 0.00 0.00 0.00 83 1015.3
20260901155316 20 58 1.6 3.2 0.00 0.00 0.00 83 1015.4
20260901154816 20 58 1.6 3.2 0.00 0.00 0.00 83 1015.5
20260901154316 20 103 1.6 3.2 0.00 0.00 0.00 83 1015.3
20260901153815 20 0.0 1.6 0.00 0.00 0.00 83 1015.4
20260901153316 20 0.0 3.2 0.00 0.00 0.00 84 1015.3
20260901152837 19 13 1.6 3.2 0.00 0.00 0.00 84 1015.3
20260901152315 19 58 1.6 3.2 0.00 0.00 0.00 84 1015.3
20260901151816 19 80 1.6 3.2 0.00 0.00 0.00 84 1015.3
20260901151336 19 0.0 0.0 0.00 0.00 0.00 85 1015.3
20260901150836 19 0.0 3.2 0.00 0.00 0.00 84 1015.2
20260901150315 19 58 3.2 4.8 0.00 0.00 0.00 84 1015.1
20260901145815 19 58 3.2 4.8 0.00 0.00 0.00 84 1015.0
20260901145316 19 80 1.6 3.2 0.00 0.00 0.00 85 1014.9
20260901144815 19 80 1.6 3.2 0.00 0.00 0.00 86 1014.9
20260901144316 19 0.0 1.6 0.00 0.00 0.00 87 1014.8
20260901143836 18 58 1.6 3.2 0.00 0.00 0.00 87 1014.7
20260901143315 18 80 3.2 4.8 0.00 0.00 0.00 88 1014.7
20260901142836 18 125 3.2 4.8 0.00 0.00 0.00 88 1014.8
20260901142316 18 103 1.6 3.2 0.00 0.00 0.00 89 1014.8
20260901141816 18 0.0 1.6 0.00 0.00 0.00 90 1014.8
20260901141315 18 0.0 0.0 0.00 0.00 0.00 91 1014.7
20260901140836 18 0.0 1.6 0.00 0.00 0.00 91 1014.6
20260901140316 18 0.0 0.0 0.00 0.00 0.00 91 1014.6
20260901135815 17 0.0 0.0 0.00 0.00 0.00 91 1014.5
20260901135316 17 0.0 0.0 0.00 0.00 0.00 91 1014.4
20260901134816 17 0.0 0.0 0.00 0.00 0.00 92 1014.4
20260901134336 17 0.0 0.0 0.00 0.00 0.00 92 1014.4
20260901133815 17 0.0 0.0 0.00 0.00 0.00 92 1014.4
20260901133336 17 0.0 0.0 0.00 0.00 0.00 92 1014.4
20260901132816 17 0.0 0.0 0.00 0.00 0.00 92 1014.3
20260901132336 17 305 1.6 1.6 0.00 0.00 0.00 93 1014.2
20260901131802 17 0.0 0.0 0.00 0.00 0.00 93 1014.2
20260901131715 17 0.0 0.0 0.00 0.00 0.00 93 1014.2
20260901131216 17 0.0 0.0 0.00 0.00 0.00 93 1014.1
20260901130715 17 0.0 0.0 0.00 0.00 0.00 93 1014.1
20260901130215 17 0.0 0.0 0.00 0.00 0.00 93 1014.1
20260901125715 17 0.0 0.0 0.00 0.00 0.00 92 1014.0
20260901125216 16 0.0 0.0 0.00 0.00 0.00 93 1014.0
20260901124716 16 0.0 0.0 0.00 0.00 0.00 92 1014.0
20260901124215 16 0.0 0.0 0.00 0.00 0.00 92 1014.1
20260901123715 16 0.0 0.0 0.00 0.00 0.00 92 1014.1
20260901123215 16 0.0 0.0 0.00 0.00 0.00 93 1014.1
20260901122715 16 0.0 0.0 0.00 0.00 0.00 92 1014.1
20260901122215 16 0.0 0.0 0.00 0.00 0.00 92 1014.0
20260901121715 16 0.0 0.0 0.00 0.00 0.00 91 1014.0
20260901121216 16 0.0 0.0 0.00 0.00 0.00 92 1013.8
20260901120715 16 0.0 0.0 0.00 0.00 0.00 91 1013.8
20260901120216 16 0.0 0.0 0.00 0.00 0.00 91 1013.8
20260901115715 17 0.0 0.0 0.00 0.00 0.00 91 1013.7
20260901115216 17 0.0 0.0 0.00 0.00 0.00 91 1013.7
20260901114715 17 0.0 0.0 0.00 0.00 0.00 91 1013.7
20260901114235 17 0.0 0.0 0.00 0.00 0.00 91 1013.7
20260901113755 17 0.0 0.0 0.00 0.00 0.00 91 1013.8
20260901113215 17 0.0 0.0 0.00 0.00 0.00 90 1013.8
20260901112736 17 0.0 0.0 0.00 0.00 0.00 91 1013.8
20260901112215 17 0.0 0.0 0.00 0.00 0.00 91 1013.8
20260901111715 17 0.0 0.0 0.00 0.00 0.00 90 1013.9
20260901111215 17 0.0 0.0 0.00 0.00 0.00 90 1013.9
20260901110715 17 0.0 0.0 0.00 0.00 0.00 90 1014.0
20260901110235 17 0.0 0.0 0.00 0.00 0.00 90 1014.0
20260901105715 17 0.0 0.0 0.00 0.00 0.00 90 1014.1
20260901105215 17 0.0 0.0 0.00 0.00 0.00 90 1014.1
20260901104715 17 0.0 0.0 0.00 0.00 0.00 89 1014.1
20260901104215 17 0.0 0.0 0.00 0.00 0.00 90 1014.0
20260901103715 17 0.0 0.0 0.00 0.00 0.00 90 1014.0
20260901103215 17 0.0 0.0 0.00 0.00 0.00 90 1014.1
20260901102715 17 0.0 0.0 0.00 0.00 0.00 89 1014.1
20260901102235 17 0.0 0.0 0.00 0.00 0.00 89 1014.1
20260901101735 17 0.0 0.0 0.00 0.00 0.00 90 1014.1
20260901101236 17 0.0 1.6 0.00 0.00 0.00 90 1014.0
20260901100715 17 305 1.6 1.6 0.00 0.00 0.00 90 1014.0
20260901100215 17 0.0 0.0 0.00 0.00 0.00 90 1014.1
20260901095715 17 0.0 0.0 0.00 0.00 0.00 90 1014.1
20260901095215 17 0.0 0.0 0.00 0.00 0.00 90 1014.0
20260901094715 17 0.0 0.0 0.00 0.00 0.00 89 1014.1
20260901094217 18 0.0 0.0 0.00 0.00 0.00 89 1014.1
20260901093717 18 0.0 0.0 0.00 0.00 0.00 89 1014.0
20260901093257 18 0.0 0.0 0.00 0.00 0.00 89 1014.0
20260901092737 18 305 1.6 3.2 0.00 0.00 0.00 90 1014.0
20260901092237 18 0.0 1.6 0.00 0.00 0.00 90 1013.9
20260901091717 18 0.0 0.0 0.00 0.00 0.00 90 1014.0
20260901091217 18 0.0 1.6 0.00 0.00 0.00 90 1014.0
20260901090737 18 0.0 0.0 0.00 0.00 0.00 90 1014.0
20260901090215 18 283 1.6 4.8 0.00 0.00 0.00 91 1014.0
20260901085717 18 0.0 1.6 0.00 0.00 0.00 91 1013.9
20260901085217 18 0.0 1.6 0.00 0.00 0.00 91 1014.0
20260901084717 17 0.0 0.0 0.00 0.00 0.00 91 1014.0
20260901084217 17 0.0 0.0 0.00 0.00 0.00 91 1014.1
20260901083717 17 0.0 0.0 0.00 0.00 0.00 90 1014.2
20260901083217 17 0.0 0.0 0.00 0.00 0.00 90 1014.2
20260901082717 17 0.0 0.0 0.00 0.00 0.00 90 1014.2
20260901082217 18 0.0 0.0 0.00 0.00 0.00 90 1014.2
20260901081717 18 0.0 0.0 0.00 0.00 0.00 90 1014.2
20260901081217 18 0.0 0.0 0.00 0.00 0.00 90 1014.2
20260901080717 18 0.0 0.0 0.00 0.00 0.00 90 1014.1
20260901080217 18 0.0 0.0 0.00 0.00 0.00 90 1014.1
20260901075717 18 0.0 0.0 0.00 0.00 0.00 89 1014.2
20260901075217 18 0.0 0.0 0.00 0.00 0.00 89 1014.1
20260901074717 18 0.0 0.0 0.00 0.00 0.00 90 1014.2
20260901074217 18 0.0 0.0 0.00 0.00 0.00 89 1014.2
20260901073757 18 0.0 0.0 0.00 0.00 0.00 90 1014.2
20260901073217 18 0.0 0.0 0.00 0.00 0.00 90 1014.1
20260901072737 18 0.0 3.2 0.00 0.00 0.00 90 1014.1
20260901072217 18 0.0 0.0 0.00 0.00 0.00 89 1014.1
20260901071737 18 0.0 0.0 0.00 0.00 0.00 89 1014.1
20260901071217 18 0.0 0.0 0.00 0.00 0.00 89 1014.1
20260901070717 18 0.0 0.0 0.00 0.00 0.00 89 1014.2
20260901070237 18 0.0 0.0 0.00 0.00 0.00 88 1014.3
20260901065716 18 0.0 0.0 0.00 0.00 0.00 88 1014.2
20260901065215 18 0.0 0.0 0.00 0.00 0.00 88 1014.3
20260901064716 18 0.0 0.0 0.00 0.00 0.00 88 1014.2
20260901064215 19 0.0 0.0 0.00 0.00 0.00 87 1014.0
20260901063715 19 0.0 0.0 0.00 0.00 0.00 87 1014.1
20260901063215 19 0.0 0.0 0.00 0.00 0.00 87 1013.9
20260901062716 19 0.0 0.0 0.00 0.00 0.00 87 1013.8
20260901062215 19 0.0 0.0 0.00 0.00 0.00 87 1013.7
20260901061715 19 0.0 0.0 0.00 0.00 0.00 87 1013.7
20260901061215 19 0.0 0.0 0.00 0.00 0.00 87 1013.7
20260901060715 19 0.0 0.0 0.00 0.00 0.00 87 1013.8
20260901060215 19 0.0 1.6 0.00 0.00 0.00 87 1013.9
20260901055715 19 0.0 0.0 0.00 0.00 0.00 87 1013.8
20260901055215 19 0.0 1.6 0.00 0.00 0.00 87 1013.8
20260901054715 19 283 3.2 4.8 0.00 0.00 0.00 87 1013.7
20260901054215 19 0.0 1.6 0.00 0.00 0.00 87 1013.7
20260901053715 20 238 1.6 4.8 0.00 0.00 0.00 87 1013.7
20260901053215 20 283 1.6 3.2 0.00 0.00 0.00 87 1013.7
20260901052715 20 260 3.2 4.8 0.00 0.00 0.00 87 1013.7
20260901052215 20 0.0 0.0 0.00 0.00 0.00 87 1013.6
20260901051756 20 0.0 0.0 0.00 0.00 0.00 87 1013.6
20260901051235 20 283 1.6 3.2 0.00 0.00 0.00 87 1013.5
20260901050735 20 305 1.6 4.8 0.00 0.00 0.00 86 1013.5
20260901050215 20 0.0 1.6 0.00 0.00 0.00 86 1013.5
20260901045715 20 0.0 1.6 0.00 0.00 0.00 86 1013.4
20260901045217 20 0.0 1.6 0.00 0.00 0.00 85 1013.3
20260901044717 20 260 1.6 3.2 0.00 0.00 0.00 85 1013.4
20260901044217 20 260 1.6 3.2 0.00 0.00 0.00 85 1013.4
20260901043715 20 283 3.2 4.8 0.00 0.00 0.00 85 1013.4
20260901043217 20 238 1.6 3.2 0.00 0.00 0.00 85 1013.4
20260901042717 20 283 1.6 3.2 0.00 0.00 0.00 84 1013.4
20260901042217 20 0.0 3.2 0.00 0.00 0.00 84 1013.3
20260901041735 20 215 1.6 3.2 0.00 0.00 0.00 84 1013.3
20260901041217 20 0.0 0.0 0.00 0.00 0.00 83 1013.2
20260901040717 20 260 6.4 11.3 0.00 0.00 0.00 83 1013.0
20260901040217 20 260 4.8 6.4 0.00 0.00 0.00 83 1012.9
20260901035717 20 283 4.8 6.4 0.00 0.00 0.00 83 1012.9